Location: Laan Hart van Zuid
(52.2563°N, 6.7904°E)
Time: 10:01:40
(UTC+02:00)

ISS - Pass Details

Date: 29 April 2024
Orbit: 411 x 419 km, 51.6° (Epoch: 26 May)

Event Time Altitude Azimuth Distance (km) Brightness Sun altitude
Exits shadow 03:20:16 19° 126° (SE) 1,097 -1.7 -19.1°
Drops below altitude 10° 03:22:03 10° 96° (E) 1,512 -0.7 -18.9°
Enters shadow 04:18:23 -69° 253° (WSW) 12,386 3.6 -13.9°
Maximum altitude 04:56:06 60° 164° (SSE) 490 -3.6 -9.8°
